Flag for Poland Weather past 2 weeks in Zielona Góra, Poland

Now
36 °F

Passing clouds.


Feels Like: 36 °F
Forecast: 32 / 44 °F
Wind: 2 mph from Southwest

Location: Zielona Gora

Current Time: Feb 28, 2015 at 8:29:15 PM

Latest Report: Feb 28, 2015 at 7:00 PM


Visibility: 19 mi

Pressure: 30.11 "Hg

Humidity: 70%

Dew point: 27 °F

Location of Zielona GóraLocation

Historic Weather in Zielona Góra — Graph

°F

Zielona Góra temperature yesterday

Maximum temperature yesterday: 43 °F (at 3:00 PM)
Minimum temperature yesterday: 34 °F (at 4:00 AM)
Average temperature yesterday: 39 °F

Past Weeks' High & Low Weather Summary

 TemperatureHumidityPressure
High50 °F (Feb 21, 2:00 PM)99% (Feb 27, 8:00 AM)30.73 "Hg (Feb 27, 8:00 AM)
Low25 °F (Feb 17, 7:00 AM)39% (Feb 21, 12:00 PM)29.44 "Hg (Feb 21, 2:00 PM)
Average37 °F76%30.07 "Hg
* Reported Feb 13 7:00 PM — Feb 28 7:00 PM, Zielona Góra, Weather by CustomWeather, © 2015

Note: Actual official high and low records may vary slightly from our data, if they occured in-between our weather recording intervals... More about our weather records

Advertising

Zielona Góra weather history for previous 24 hours

 ConditionsComfort  
Time TempWeatherWind HumidityBarometerVisibility
7:00 PM
Sat, Feb 28
36 °FPassing clouds.2 mph70%30.11 "Hg19 mi
6:00 PM39 °FPassing clouds.2 mph64%30.10 "Hg19 mi
5:00 PM43 °FPartly sunny.2 mph54%30.09 "Hg19 mi
4:00 PM42 °FOvercast.2 mph62%30.09 "Hg19 mi
3:00 PM42 °FOvercast.3 mph67%30.09 "Hg19 mi
2:00 PM41 °FOvercast.3 mph70%30.10 "Hg19 mi
1:00 PM40 °FOvercast.3 mph77%30.12 "Hg12 mi
12:00 PM38 °FOvercast.3 mph86%30.13 "Hg7 mi
11:00 AM38 °FFog.5 mph88%30.12 "Hg5 mi
10:00 AM37 °FLow clouds.3 mph93%30.12 "Hg4 mi
9:00 AM36 °FLight rain. Low clouds.3 mph95%30.11 "Hg2 mi
8:00 AM35 °FLow clouds.5 mph94%30.10 "Hg3 mi
7:00 AM35 °FFog.5 mph95%30.08 "Hg2 mi
6:00 AM35 °FFog.3 mph94%30.06 "Hg2 mi
5:00 AM35 °FFog.3 mph96%30.05 "Hg2 mi
4:00 AM33 °FFog.5 mph97%30.05 "Hg2 mi
3:00 AM35 °FClear.5 mph86%30.03 "Hg6 mi
2:00 AM38 °FPassing clouds.1 mph77%30.02 "Hg6 mi
1:00 AM41 °FOvercast.2 mph70%30.01 "Hg6 mi
12:00 AM41 °FFog.2 mph77%30.01 "Hg3 mi
11:00 PM
Fri, Feb 27
41 °FFog.2 mph86%30.00 "Hg2 mi
9:00 PM42 °FFog.1 mph84%29.99 "Hg3 mi
8:00 PM42 °FFog.1 mph85%29.98 "Hg3 mi
Weather by CustomWeather, © 2015

See weather overviewHow to use our weather pages